This is the latest recevied weather packets stored in our database for station/object WB0OCV. If no packets are shown the sender has not sent any weather packets the latest 10 day(s).
| Time | Temp. | Humidity | Pressure | Rain* | Wind** | Luminosity | Snow |
|---|---|---|---|---|---|---|---|
| 1778199590 | 9.44° C | 86% | 1008.2 hPa | 0 mm | - | 0 W/m² | - |
| 1778199286 | 8.89° C | 84% | 1008.5 hPa | 0 mm | - | 0 W/m² | - |
| 1778198983 | 9.44° C | 83% | 1008.3 hPa | 0 mm | - | 0 W/m² | - |
| 1778198679 | 9.44° C | 82% | 1008.4 hPa | 0 mm | - | 0 W/m² | - |
| 1778198376 | 10° C | 81% | 1008.3 hPa | 0 mm | - | 0 W/m² | - |
| 1778198073 | 10° C | 79% | 1008.3 hPa | 0 mm | - | 1 W/m² | - |
| 1778197770 | 10.56° C | 79% | 1008.3 hPa | 0 mm | - | 2 W/m² | - |
| 1778197467 | 10.56° C | 77% | 1008.2 hPa | 0 mm | - | 3 W/m² | - |
| 1778197163 | 10.56° C | 77% | 1008.3 hPa | 0 mm | - | 5 W/m² | - |
| 1778196860 | 11.11° C | 76% | 1008.4 hPa | 0 mm | - | 7 W/m² | - |
| 1778196559 | 11.11° C | 75% | 1008.3 hPa | 0 mm | - | 10 W/m² | - |
| 1778196255 | 11.67° C | 73% | 1008.2 hPa | 0 mm | - | 12 W/m² | - |
| 1778195952 | 12.22° C | 70% | 1008 hPa | 0 mm | - | 14 W/m² | - |
| 1778195649 | 12.22° C | 67% | 1008 hPa | 0 mm | - | 17 W/m² | - |
| 1778195345 | 12.22° C | 69% | 1008.1 hPa | 0 mm | - | 19 W/m² | - |
| 1778195043 | 12.78° C | 68% | 1007.8 hPa | 0 mm | - | 21 W/m² | - |
| 1778194743 | 12.78° C | 70% | 1007.9 hPa | 0 mm | - | 22 W/m² | - |
| 1778194439 | 12.78° C | 68% | 1007.7 hPa | 0 mm | - | 25 W/m² | - |
| 1778194135 | 13.33° C | 67% | 1007.8 hPa | 0 mm | - | 29 W/m² | - |
| 1778193832 | 13.89° C | 62% | 1007.6 hPa | 0 mm | - | 39 W/m² | - |
| 1778193528 | 13.89° C | 61% | 1007.5 hPa | 0 mm | - | 33 W/m² | - |
| 1778193224 | 13.33° C | 69% | 1007.5 hPa | 0 mm | - | 32 W/m² | - |
| 1778192921 | 13.33° C | 71% | 1007.5 hPa | 0 mm | - | 40 W/m² | - |
| 1778192618 | 13.33° C | 69% | 1007.5 hPa | 0 mm | - | 35 W/m² | - |
| 1778192315 | 13.89° C | 69% | 1007.7 hPa | 0 mm | - | 38 W/m² | - |
* Rain latest hour (hover to see other rain measurements)
** Current wind speed in m/s (hover to see current wind gust speed)